Location: Austin
(30.3000°N, 97.7500°W)
Time: 12:09:05
(UTC-05:00)

Cosmos 1844 - Pass Details

Date: 03 April 2024
Orbit: 822 x 867 km, 70.9° (Epoch: 22 April)

Event Time Altitude Azimuth Distance (km) Brightness Sun altitude
Rises 04:54:49 0° 344° (NNW) 3,429 7.0 -30.1°
Reaches altitude 10° 04:57:19 10° 348° (NNW) 2,496 6.3 -29.6°
Maximum altitude 05:03:00 61° 69° (ENE) 972 4.1 -28.5°
Drops below altitude 10° 05:08:41 10° 149° (SSE) 2,500 6.2 -27.4°
Sets 05:11:10 0° 153° (SSE) 3,436 6.9 -26.9°
